This is the latest recevied weather packets stored in our database for station/object N3EDS. If no packets are shown the sender has not sent any weather packets the latest 10 day(s).
| Time | Temp. | Humidity | Pressure | Rain* | Wind** | Luminosity | Snow |
|---|---|---|---|---|---|---|---|
| 1777890451 | 5° C | 74% | 1013.4 hPa | 0 mm | - | 7 W/m² | - |
| 1777890147 | 5° C | 74% | 1013.4 hPa | 0 mm | - | 5 W/m² | - |
| 1777889844 | 5° C | 75% | 1013.7 hPa | 0 mm | - | 3 W/m² | - |
| 1777889542 | 4.44° C | 76% | 1013.3 hPa | 0 mm | - | 2 W/m² | - |
| 1777889239 | 4.44° C | 77% | 1013.6 hPa | 0 mm | - | 1 W/m² | - |
| 1777888937 | 4.44° C | 80% | 1013.8 hPa | 0 mm | - | 0 W/m² | - |
| 1777888634 | 5° C | 79% | 1013.6 hPa | 0 mm | - | 0 W/m² | - |
| 1777888330 | 4.44° C | 78% | 1013.7 hPa | 0 mm | - | 0 W/m² | - |
| 1777888027 | 4.44° C | 80% | 1013.8 hPa | 0 mm | - | 0 W/m² | - |
| 1777887723 | 4.44° C | 81% | 1013.6 hPa | 0 mm | - | 0 W/m² | - |
| 1777887420 | 4.44° C | 83% | 1013.8 hPa | 0 mm | - | 0 W/m² | - |
| 1777887115 | 4.44° C | 83% | 1013.9 hPa | 0 mm | - | 0 W/m² | - |
| 1777886812 | 4.44° C | 81% | 1013.8 hPa | 0 mm | - | 0 W/m² | - |
| 1777886508 | 4.44° C | 80% | 1013.9 hPa | 0 mm | - | 0 W/m² | - |
| 1777886206 | 4.44° C | 78% | 1013.7 hPa | 0 mm | - | 0 W/m² | - |
| 1777885904 | 5° C | 79% | 1013.9 hPa | 0 mm | - | 0 W/m² | - |
| 1777885602 | 5° C | 78% | 1013.9 hPa | 0 mm | - | 0 W/m² | - |
| 1777885300 | 5° C | 77% | 1014.2 hPa | 0 mm | - | 0 W/m² | - |
| 1777884998 | 5.56° C | 80% | 1014.3 hPa | 0 mm | - | 0 W/m² | - |
| 1777884693 | 5.56° C | 78% | 1014.2 hPa | 0 mm | - | 0 W/m² | - |
| 1777884390 | 5.56° C | 78% | 1013.9 hPa | 0 mm | - | 0 W/m² | - |
| 1777884086 | 5.56° C | 78% | 1014.4 hPa | 0 mm | - | 0 W/m² | - |
| 1777883784 | 5.56° C | 81% | 1014.4 hPa | 0 mm | - | 0 W/m² | - |
| 1777883481 | 5.56° C | 78% | 1014.2 hPa | 0 mm | - | 0 W/m² | - |
| 1777883177 | 5.56° C | 81% | 1014.1 hPa | 0 mm | - | 0 W/m² | - |
* Rain latest hour (hover to see other rain measurements)
** Current wind speed in m/s (hover to see current wind gust speed)